CW5066 Weather Reports


time (UTC)temp
F
wind
direction
speed
knots
gust
knots
rain 1hr
in
rain 24hr
in
rain mn
in
humidity
%
barometer
mb
20260831032516 55 203 1.7 3.5 0.00 0.08 0.08 58 1028.0
20260831031516 55 180 0.9 2.6 0.00 0.08 0.08 57 1028.0
20260831030515 55 0.0 1.7 0.00 0.08 0.08 57 1027.9
20260831025516 55 180 0.9 3.5 0.00 0.08 0.08 57 1027.7
20260831024516 55 135 0.9 1.7 0.00 0.08 0.08 57 1027.5
20260831023515 56 0.0 1.7 0.00 0.08 0.08 57 1027.6
20260831022536 56 225 1.7 3.5 0.00 0.08 0.08 56 1028.0
20260831021515 56 225 2.6 3.5 0.00 0.08 0.08 56 1027.6
20260831020515 56 225 2.6 5.2 0.00 0.08 0.08 57 1026.8
20260831015515 56 248 2.6 5.2 0.00 0.08 0.08 56 1026.7
20260831014535 57 225 2.6 5.2 0.00 0.08 0.08 56 1026.8
20260831013515 57 225 2.6 5.2 0.00 0.08 0.08 55 1027.6
20260831012516 57 248 3.5 8.7 0.00 0.08 0.08 54 1027.6
20260831011515 58 225 5.2 10.4 0.00 0.08 0.08 53 1027.8
20260831010515 58 225 6.1 13.0 0.00 0.08 0.08 53 1027.4
20260831005536 58 225 7.8 15.6 0.00 0.08 0.08 52 1027.3
20260831004515 58 203 8.7 14.8 0.00 0.08 0.08 51 1027.4
20260831003535 59 225 10.4 16.5 0.00 0.08 0.08 51 1027.4
20260831002516 59 225 8.7 13.9 0.00 0.08 0.08 50 1028.0
20260831001515 59 225 8.7 19.1 0.00 0.08 0.08 49 1028.1
20260831000515 60 225 9.6 15.6 0.00 0.08 0.08 48 1029.3
20260830235515 60 225 12.2 21.7 0.00 0.08 0.08 48 1029.3
20260830234517 60 225 13.9 20.0 0.00 0.08 0.08 47 1029.0
20260830233517 61 225 14.8 25.2 0.00 0.08 0.08 46 1027.5
20260830232517 62 225 14.8 23.5 0.00 0.08 0.08 45 1027.6
20260830231517 62 225 12.2 19.1 0.00 0.08 0.08 45 1027.4
20260830230517 61 225 12.2 20.0 0.00 0.08 0.08 47 1027.0
20260830225517 61 225 13.9 25.2 0.00 0.08 0.08 47 1026.8
20260830224517 60 225 13.0 19.1 0.00 0.08 0.08 50 1026.9
20260830223517 59 225 13.0 20.9 0.00 0.08 0.08 51 1026.8
20260830222517 58 225 13.9 22.6 0.00 0.08 0.08 54 1027.0
20260830221517 57 225 13.0 23.5 0.00 0.08 0.08 56 1026.3
20260830220517 57 225 14.8 22.6 0.00 0.08 0.08 58 1026.6
20260830215517 56 225 13.9 23.5 0.00 0.08 0.08 58 1025.8
20260830214517 55 225 15.6 24.3 0.00 0.08 0.08 59 1025.9
20260830213517 55 225 9.6 16.5 0.00 0.08 0.08 63 1026.3
20260830212517 55 225 6.1 13.9 0.00 0.08 0.08 73 1026.8
20260830211517 52 203 4.3 9.6 0.00 0.08 0.08 73 1025.9
20260830210516 52 225 8.7 18.2 0.04 0.08 0.08 74 1026.0
20260830205517 50 225 9.6 20.0 0.07 0.08 0.08 74 1025.2
20260830204536 50 225 9.6 18.2 0.08 0.08 0.08 77 1025.2
20260830203537 50 248 8.7 21.7 0.08 0.08 0.08 78 1024.1
20260830202536 49 225 2.6 7.0 0.08 0.08 0.08 81 1024.3
20260830201516 47 293 8.7 16.5 0.08 0.08 0.08 82 1024.1
20260830200516 50 270 11.3 21.7 0.04 0.04 0.04 74 1024.4
20260830195516 58 270 7.8 20.0 0.01 0.01 0.01 66 1026.6
20260830194517 57 225 1.7 4.3 0.00 0.00 0.00 67 1025.6
20260830193517 58 293 5.2 11.3 0.00 0.00 0.00 64 1025.2
20260830192517 57 293 2.6 7.8 0.00 0.00 0.00 66 1025.2
20260830191517 59 338 5.2 10.4 0.00 0.00 0.00 65 1025.8
20260830190517 63 293 7.0 16.5 0.00 0.00 0.00 46 1027.4
20260830185517 64 203 4.3 10.4 0.00 0.00 0.00 42 1027.4
20260830184516 64 203 7.0 11.3 0.00 0.00 0.00 41 1027.5
20260830183516 64 203 7.0 14.8 0.00 0.00 0.00 42 1027.6
20260830182536 65 203 6.1 13.0 0.00 0.00 0.00 42 1027.7
20260830181516 64 203 6.1 12.2 0.00 0.00 0.00 43 1027.9
20260830180516 64 203 8.7 15.6 0.00 0.00 0.00 42 1027.8
20260830175516 64 180 6.1 13.0 0.00 0.00 0.00 42 1028.0
20260830174516 63 203 3.5 7.8 0.00 0.00 0.00 47 1027.8
20260830173516 63 203 5.2 10.4 0.00 0.00 0.00 46 1027.9
20260830172536 64 180 5.2 12.2 0.00 0.00 0.00 45 1027.8
20260830171517 63 225 3.5 7.8 0.00 0.00 0.00 47 1027.8
20260830170516 63 203 2.6 7.0 0.00 0.00 0.00 48 1027.7
20260830165516 63 203 3.5 9.6 0.00 0.00 0.00 48 1027.8
20260830164516 62 180 6.1 12.2 0.00 0.00 0.00 50 1027.2
20260830163516 61 203 6.1 11.3 0.00 0.00 0.00 51 1026.7
20260830162536 60 203 8.7 14.8 0.00 0.00 0.00 53 1026.4
20260830161516 59 225 7.0 11.3 0.00 0.00 0.00 55 1025.6
20260830160536 58 225 7.0 14.8 0.00 0.00 0.00 56 1025.6
20260830155556 57 203 5.2 12.2 0.00 0.00 0.00 60 1025.3
20260830154516 56 203 2.6 5.2 0.00 0.00 0.00 65 1025.5
20260830153516 55 203 2.6 6.1 0.00 0.00 0.00 66 1024.8
20260830152556 55 203 3.5 7.8 0.00 0.00 0.00 66 1024.7
20260830151516 54 248 3.5 7.8 0.00 0.00 0.00 66 1024.7
20260830150516 54 270 1.7 7.0 0.00 0.00 0.00 68 1024.9
20260830145516 54 293 1.7 4.3 0.00 0.00 0.00 70 1025.0
20260830144536 54 225 2.6 7.8 0.00 0.00 0.00 60 1024.8
20260830143515 55 248 1.7 4.3 0.00 0.00 0.00 60 1024.5
20260830142515 55 225 0.9 2.6 0.00 0.00 0.00 60 1024.6
20260830141515 54 113 0.9 1.7 0.00 0.00 0.00 64 1023.7
20260830140515 54 0.0 1.7 0.00 0.00 0.00 64 1024.4
20260830135515 54 0.0 1.7 0.00 0.00 0.00 62 1024.4
20260830134516 54 0.0 1.7 0.00 0.00 0.00 63 1024.4
20260830133515 53 180 0.9 1.7 0.00 0.00 0.00 63 1025.1
20260830132536 53 180 1.7 3.5 0.00 0.00 0.00 64 1024.8
20260830131515 53 203 0.9 2.6 0.00 0.00 0.00 65 1024.6
20260830130516 53 225 0.9 2.6 0.00 0.00 0.00 65 1027.1
20260830125516 53 270 3.5 7.8 0.00 0.00 0.00 64 1027.2
20260830124555 53 270 3.5 8.7 0.00 0.00 0.00 64 1027.2
20260830123515 52 270 0.9 2.6 0.00 0.00 0.00 64 1026.9
20260830122515 52 0 1.7 3.5 0.00 0.00 0.00 65 1026.8
20260830121515 53 23 2.6 4.3 0.00 0.00 0.00 64 1026.5
20260830120535 54 23 2.6 3.5 0.00 0.00 0.00 61 1027.0
20260830115515 55 68 0.9 1.7 0.00 0.00 0.00 58 1026.8
20260830114517 56 180 0.9 1.7 0.00 0.00 0.00 57 1027.5
20260830113517 56 225 0.9 2.6 0.00 0.00 0.00 58 1026.7
20260830112517 55 158 0.9 2.6 0.00 0.00 0.00 60 1025.9
20260830111517 52 113 2.6 4.3 0.00 0.00 0.00 65 1025.1
20260830110517 51 45 0.9 2.6 0.00 0.00 0.00 68 1024.1
20260830105517 51 23 2.6 4.3 0.00 0.00 0.00 68 1024.3
20260830104517 51 23 2.6 3.5 0.00 0.00 0.00 67 1024.3
20260830103517 52 23 2.6 4.3 0.00 0.00 0.00 65 1024.8
20260830102517 54 23 2.6 3.5 0.00 0.00 0.00 63 1025.4
20260830101517 54 293 0.9 1.7 0.00 0.00 0.00 60 1025.3
20260830100537 54 0.0 1.7 0.00 0.00 0.00 62 1025.7
20260830095517 53 0.0 1.7 0.00 0.00 0.00 63 1025.0
20260830094517 54 0.0 1.7 0.00 0.00 0.00 63 1024.8
20260830093517 54 225 0.9 2.6 0.00 0.00 0.00 63 1024.9
20260830092517 53 270 0.9 2.6 0.00 0.00 0.00 64 1025.0
20260830091517 53 248 1.7 4.3 0.00 0.00 0.00 64 1025.1
20260830090516 53 270 3.5 8.7 0.00 0.00 0.00 65 1027.1
20260830085517 53 270 2.6 7.8 0.00 0.00 0.00 65 1026.9
20260830084517 53 293 5.2 10.4 0.00 0.00 0.00 64 1027.1
20260830083517 53 293 3.5 10.4 0.00 0.00 0.00 63 1027.5
20260830082557 53 293 3.5 9.6 0.00 0.00 0.00 63 1027.7
20260830081516 53 293 2.6 7.8 0.00 0.00 0.00 64 1027.7
20260830080536 52 270 1.7 4.3 0.00 0.00 0.00 66 1027.3
20260830075517 50 23 0.9 2.6 0.00 0.00 0.00 68 1026.7
20260830074517 50 23 2.6 5.2 0.00 0.00 0.00 69 1026.6
20260830073517 51 45 2.6 4.3 0.00 0.00 0.00 67 1026.5
20260830072517 51 23 1.7 3.5 0.00 0.00 0.00 67 1026.4
20260830071517 51 45 2.6 4.3 0.00 0.00 0.00 66 1026.5
20260830070516 52 23 2.6 3.5 0.00 0.00 0.00 64 1026.5
20260830065516 53 23 1.7 3.5 0.00 0.00 0.00 62 1026.5
20260830064516 54 23 0.9 1.7 0.00 0.00 0.00 60 1027.1
20260830063516 54 158 0.9 1.7 0.00 0.00 0.00 60 1027.1
20260830062516 54 180 1.7 2.6 0.00 0.00 0.00 60 1027.2
20260830061516 54 158 2.6 5.2 0.00 0.00 0.00 61 1027.6
20260830060516 54 158 1.7 3.5 0.00 0.00 0.00 61 1027.1
20260830055537 54 180 2.6 4.3 0.00 0.00 0.00 61 1027.2
20260830054517 54 180 2.6 4.3 0.00 0.00 0.00 61 1027.2
20260830053537 54 180 2.6 4.3 0.00 0.00 0.00 61 1027.9
20260830052517 54 180 2.6 6.1 0.00 0.00 0.00 61 1027.9
20260830051517 54 180 1.7 3.5 0.00 0.00 0.00 61 1027.8
20260830050537 54 225 3.5 7.0 0.00 0.00 0.00 61 1026.6
20260830045517 54 203 3.5 7.0 0.00 0.00 0.00 61 1026.6
20260830044517 54 225 3.5 7.0 0.00 0.00 0.00 63 1026.7
20260830043516 53 225 3.5 8.7 0.00 0.00 0.00 64 1026.1
20260830042517 53 225 4.3 9.6 0.00 0.00 0.00 65 1026.2
20260830041517 52 248 2.6 7.8 0.00 0.00 0.00 67 1026.5
20260830040537 52 248 4.3 7.8 0.00 0.00 0.00 68 1026.7
20260830035536 52 225 6.1 11.3 0.00 0.00 0.00 69 1026.8
20260830034517 52 225 6.1 13.0 0.00 0.00 0.00 69 1026.9
20260830033537 52 203 7.0 13.9 0.00 0.00 0.00 69 1026.3